Regional Weather Roundup
Issued by NWS Huntsville, AL

Home | Current Version | Previous Version | Text Only | Print | Product List | Glossary On
Versions: 1 2 3 4 5 6 7 8 9 10 11 12 13 14 15 16 17 18 19 20 21 22 23 24 25 26 27
000
ASUS44 KHUN 210710
RWRHUN

WEATHER ROUNDUP FOR THE TENNESSEE VALLEY
NATIONAL WEATHER SERVICE HUNTSVILLE AL
100 AM CST TUE FEB 21 2017

ALZ001>004-210800-
NORTHWEST ALABAMA

CITY           SKY/WX    TMP DP  RH WIND       PRES   REMARKS
COURTLAND HCN    N/A     59 N/A N/A E6          N/A
RUSSELLVILLE     N/A     64 N/A N/A MISG        N/A
SHOALS AIRPORT CLOUDY    58  48  69 E6        29.99F
SHOALS TVA RES   N/A     59 N/A N/A MISG        N/A
$$

ALZ005>007-016-210800-
NORTH CENTRAL ALABAMA

CITY           SKY/WX    TMP DP  RH WIND       PRES   REMARKS
CULLMAN AG STN   N/A     59 N/A N/A SE5         N/A
DECATUR AP     MOCLDY    58  51  78 E7        30.01F
HUNTSVILLE AP  CLOUDY    60  51  72 SE10      30.02S
MERIDIANVILLE  PTCLDY    59  46  63 S5        30.04R
REDSTONE ARSN  CLOUDY    59  50  73 S7        30.02R
VINEMONT AP    FAIR      60  49  67 SE8       30.05S
$$

ALZ008>010-210800-
NORTHEAST ALABAMA

CITY           SKY/WX    TMP DP  RH WIND       PRES   REMARKS
ALBERTVILLE    CLOUDY    59  54  82 SE5       30.04F
FORT PAYNE     CLOUDY    61  43  51 SE6       30.07S
SCOTTSBORO AP  CLOUDY    52  50  93 CALM      30.06F
SCOTTSBORO HCN   N/A     50 N/A N/A MISG        N/A
VALLEY HEAD      N/A     61 N/A N/A MISG        N/A
$$

TNZ076-096-097-210800-
SOUTHEASTERN MIDDLE TENNESSEE

CITY           SKY/WX    TMP DP  RH WIND       PRES   REMARKS
TULLAHOMA      CLEAR     61  43  51 SE7       30.05S
$$

...SURROUNDING SITES...

CITY           SKY/WX    TMP DP  RH WIND       PRES   REMARKS
ATLANTA        CLOUDY    57  46  66 E6        30.12S
ANNISTON       MOCLDY    60  50  69 NE7       30.07S
BIRMINGHAM     PTCLDY    65  52  62 SE6       30.05S
CHATTANOOGA    CLOUDY    51  47  86 CALM      30.10R
DALTON         CLOUDY    59  45  58 SE5       30.10S
GADSDEN        CLOUDY    50  49  96 N3        30.06F
GOLDEN TRNGL   PTCLDY    64  50  59 S10       29.91R
HALEYVILLE     FAIR      62  50  64 SE9       30.01F
JACKSON TN     CLOUDY    62  49  62 E6        29.92F
MEMPHIS        LGT RAIN  68  51  54 S15G22    29.88R
NASHVILLE      CLOUDY    58  44  60 SE6       30.02S
OXFORD MS      FAIR      64  48  55 SE7       29.92F
ROME           CLOUDY    52  46  80 CALM      30.09S
SAVANNAH       CLOUDY    63  48  59 SE8       29.93F
TUPELO         MOCLDY    66  49  54 SE10      29.94S
TUSCALOOSA     PTCLDY    65  52  62 SE8       29.99S
$$

...GULF COAST WEATHER...

CITY           SKY/WX    TMP DP  RH WIND       PRES   REMARKS
GULFPORT       CLOUDY    69  68  96 SE17      29.94F
PASCAGOULA     CLOUDY    68  65  90 SE10      29.97S
MOBILE         LGT RAIN  67  65  93 SE13      29.98F
GULF SHORES    CLOUDY    67  67 100 SE9       29.99F
PENSACOLA      MOCLDY    67  65  93 SE9       29.99F
DESTIN         CLOUDY    69  67  93 SE6       30.02S
PANAMA CITY    MOCLDY    61  60  95 SE7       30.04F
APPALACHICOLA  CLOUDY    59  58  96 SE3       30.05F
$$





USA.gov is the U.S. government's official web portal to all federal, state and local government web resources and services.